Content
SEND FEEDBACK

Daily
Averages
Monthly
Summary
United States of America

CAPUTA, SOUTH DAKOTA


Home > North America > United States > South Dakota
Elevation: 3149 feet     Latitude: 44 03N     Longitude: 103 04W

WEATHER
 
SELECT A DAY
Number of Records: 202,792;   Date Range: 1/1/95 - 9/30/14
 
SHARE

PRINT THIS DATA

[ ← Previous Day ]
WEATHER ALMANAC - MAY 22, 2013
[ Next Day → ]
[ °C ]   °F
Weather ElementAverageHighLow
Temperature49.5 °F55.4 °F (5:09 pm)44.1 °F (4:52 am)
Dewpoint43.7 °F46.4 °F (2:34 pm)42.1 °F (12:52 am)
Humidity81.4 %93 % (12:26 am)63 % (5:09 pm)
Barometer30.03 in30.18 in (11:52 pm)29.95 in (12:26 am)
Wind Speed11.9 mph18.4 mph (10:24 am)
Wind Gust23 mph (7:52 am)
Weather ElementAverage
Visibility9.3 mi
Wind DirectionSW (226.8 °)

Weather ElementTotal
Precipitation---
Heating Degree Days15.3 (Base 65)
Averaged from 41 records on May 22, 2013
WEATHER CONDITIONS BREAKOUT
WIND DIRECTION BREAKOUT
WEATHER BY HOUR - MAY 22, 2013
[ °C ]   °F
Local TimeTemperatureDewpointHumidityBarometerVisibilityWind DirectionWind SpeedGust SpeedPrecipitationEventsConditions
12:26 AM44.6 °F42.8 °F93 %29.95 in10.0 miNNW (340°)15.0 mphOvercast
12:52 AM45.0 °F42.1 °F90 %29.98 in10.0 miNNW (340°)12.7 mphOvercast
1:30 AM44.6 °F42.8 °F93 %29.95 in10.0 miNorth (350°)13.8 mphOvercast
1:52 AM45.0 °F42.1 °F90 %29.96 in10.0 miNNW (340°)12.7 mphOvercast
2:01 AM44.6 °F42.8 °F93 %29.95 in10.0 miNNW (340°)12.7 mphOvercast
2:52 AM45.0 °F42.1 °F90 %29.96 in10.0 miNNW (330°)12.7 mphOvercast
3:52 AM45.0 °F42.1 °F90 %29.97 in9.0 miNNW (340°)13.8 mphOvercast
4:52 AM44.1 °F42.1 °F93 %29.98 in4.0 miNNW (340°)11.5 mphOvercast
5:07 AM44.6 °F42.8 °F93 %29.96 in8.0 miNNW (330°)9.2 mphOvercast
5:52 AM45.0 °F43.0 °F93 %29.99 in10.0 miNNW (340°)9.2 mphOvercast
6:52 AM45.0 °F43.0 °F93 %29.99 in8.0 miNW (320°)12.7 mphOvercast
7:11 AM44.6 °F42.8 °F93 %29.97 in9.0 miNNW (330°)17.3 mphOvercast
7:52 AM46.9 °F43.0 °F86 %30.00 in10.0 miNNW (330°)13.8 mph23.0 mphOvercast
8:33 AM46.4 °F44.6 °F93 %29.98 in6.0 miNNW (340°)17.3 mph0.00 inRainLight Rain
8:42 AM46.4 °F44.6 °F93 %29.99 in6.0 miNorth (10°)15.0 mph0.00 inOvercast
8:52 AM46.9 °F44.1 °F90 %30.01 in7.0 miNorth (360°)13.8 mph23.0 mph0.00 inOvercast
9:52 AM48.0 °F43.0 °F83 %30.02 in9.0 miNorth (360°)16.1 mph0.00 inOvercast
10:24 AM51.8 °F44.6 °F76 %30.00 in10.0 miNorth (350°)18.4 mphOvercast
10:45 AM50.0 °F44.6 °F82 %30.01 in10.0 miNorth (360°)17.3 mphOvercast
10:52 AM50.0 °F44.1 °F80 %30.03 in10.0 miNorth (350°)17.3 mphOvercast
11:52 AM50.0 °F43.0 °F77 %30.05 in10.0 miNorth (360°)15.0 mphOvercast
12:17 PM48.2 °F42.8 °F82 %30.03 in10.0 miNorth (350°)17.3 mphOvercast
12:52 PM50.0 °F44.1 °F80 %30.05 in7.0 miNorth (350°)17.3 mph0.00 inOvercast
1:14 PM51.8 °F44.6 °F76 %30.03 in10.0 miNorth (360°)16.1 mphOvercast
1:52 PM51.1 °F45.0 °F80 %30.06 in10.0 miNorth (360°)13.8 mphOvercast
2:34 PM53.6 °F46.4 °F77 %30.04 in10.0 miNorth (360°)18.4 mph0.00 inOvercast
2:52 PM54.0 °F45.0 °F72 %30.05 in10.0 miNNE (20°)13.8 mph0.00 inOvercast
3:52 PM54.0 °F45.0 °F72 %30.06 in10.0 miNorth (10°)9.2 mphOvercast
4:52 PM54.0 °F43.0 °F66 %30.08 in10.0 miNNE (30°)12.7 mphOvercast
5:09 PM55.4 °F42.8 °F63 %30.06 in10.0 miNNE (30°)9.2 mphOvercast
5:52 PM55.0 °F43.0 °F64 %30.07 in10.0 miNE (40°)12.7 mphOvercast
6:39 PM53.6 °F42.8 °F67 %30.07 in10.0 miNE (50°)9.2 mphOvercast
6:49 PM53.6 °F42.8 °F67 %30.07 in10.0 miNE (50°)8.1 mphOvercast
6:52 PM54.0 °F43.0 °F66 %30.08 in10.0 miNE (50°)8.1 mphOvercast
7:12 PM53.6 °F44.6 °F72 %30.08 in10.0 miENE (60°)5.8 mphOvercast
7:37 PM53.6 °F44.6 °F72 %30.09 in10.0 miENE (60°)5.8 mphOvercast
7:52 PM53.1 °F44.1 °F71 %30.10 in10.0 miNE (40°)4.6 mphOvercast
8:52 PM52.0 °F46.0 °F80 %30.12 in10.0 miCalmOvercast
9:52 PM52.0 °F46.0 °F80 %30.16 in10.0 miCalmOvercast
10:52 PM51.1 °F46.0 °F83 %30.17 in10.0 miEast (100°)3.5 mphOvercast
11:52 PM51.1 °F46.0 °F83 %30.18 in10.0 miESE (120°)6.9 mphOvercast
Hourly data recorded from KRAP, located miles away from Caputa, South Dakota







STORIES FROM OUR PARTNERS